TimeEST,TemperatureF,Dew PointF,Humidity,Sea Level PressureIn,VisibilityMPH,Wind Direction,Wind SpeedMPH,Gust SpeedMPH,PrecipitationIn,Events,Conditions,WindDirDegrees,DateUTC
12:24 AM,21.2,14.0,74,30.37,10.0,NNE,8.1,-,N/A,,Overcast,30,2012-11-30 05:24:00
12:26 AM,21.2,14.0,74,30.37,10.0,NE,9.2,-,N/A,,Overcast,40,2012-11-30 05:26:00
12:55 AM,20.8,13.1,72,30.38,10.0,NE,13.8,-,N/A,,Overcast,40,2012-11-30 05:55:00
1:00 AM,21.2,14.0,74,30.37,10.0,NE,13.8,-,N/A,,Overcast,40,2012-11-30 06:00:00
1:55 AM,19.8,11.8,71,30.40,10.0,ENE,12.7,-,N/A,,Overcast,60,2012-11-30 06:55:00
2:55 AM,18.0,9.7,70,30.41,10.0,NE,13.8,-,N/A,,Overcast,40,2012-11-30 07:55:00
3:55 AM,16.3,8.6,72,30.43,10.0,NE,11.5,-,N/A,,Scattered Clouds,50,2012-11-30 08:55:00
4:55 AM,15.6,9.0,75,30.44,10.0,NE,13.8,-,N/A,,Overcast,40,2012-11-30 09:55:00
5:55 AM,12.7,6.8,77,30.47,10.0,NE,11.5,-,N/A,,Clear,40,2012-11-30 10:55:00
6:55 AM,11.5,6.4,80,30.49,10.0,NE,10.4,-,N/A,,Scattered Clouds,50,2012-11-30 11:55:00
7:55 AM,11.3,6.6,81,30.51,10.0,NE,11.5,-,N/A,,Overcast,50,2012-11-30 12:55:00
8:55 AM,12.0,6.6,79,30.52,10.0,NE,11.5,-,N/A,,Overcast,50,2012-11-30 13:55:00
9:55 AM,13.1,7.5,78,30.53,10.0,NE,11.5,-,N/A,,Overcast,50,2012-11-30 14:55:00
10:55 AM,14.5,7.7,74,30.53,10.0,NE,10.4,-,N/A,,Overcast,50,2012-11-30 15:55:00
11:55 AM,15.4,7.7,71,30.50,10.0,NE,13.8,-,N/A,,Overcast,50,2012-11-30 16:55:00
12:55 PM,16.2,7.3,68,30.50,10.0,NE,9.2,-,N/A,,Overcast,40,2012-11-30 17:55:00
1:55 PM,16.2,7.5,69,30.49,10.0,NE,12.7,-,N/A,,Overcast,40,2012-11-30 18:55:00
2:55 PM,16.3,7.9,69,30.49,10.0,NE,10.4,-,N/A,,Overcast,50,2012-11-30 19:55:00
3:55 PM,16.9,8.4,69,30.50,10.0,ENE,8.1,-,N/A,,Overcast,60,2012-11-30 20:55:00
4:55 PM,17.4,9.0,69,30.50,10.0,ENE,8.1,-,N/A,,Overcast,70,2012-11-30 21:55:00
5:20 PM,17.6,8.6,68,30.50,10.0,NE,8.1,-,N/A,,Overcast,50,2012-11-30 22:20:00
5:41 PM,17.6,8.6,68,30.50,10.0,ENE,9.2,-,N/A,,Overcast,60,2012-11-30 22:41:00
5:42 PM,17.6,8.6,68,30.50,10.0,ENE,9.2,-,N/A,,Overcast,60,2012-11-30 22:42:00
5:43 PM,17.6,8.6,68,30.50,10.0,NE,9.2,-,N/A,,Overcast,50,2012-11-30 22:43:00
5:46 PM,17.6,8.6,68,30.50,10.0,NE,8.1,-,N/A,,Overcast,50,2012-11-30 22:46:00
5:47 PM,17.6,8.6,68,30.50,10.0,NE,8.1,-,N/A,,Overcast,50,2012-11-30 22:47:00
5:55 PM,17.6,9.1,69,30.51,10.0,NE,9.2,-,N/A,,Overcast,50,2012-11-30 22:55:00
5:56 PM,17.6,8.6,68,30.51,10.0,NE,9.2,-,N/A,,Overcast,40,2012-11-30 22:56:00
6:01 PM,17.6,8.6,68,30.51,10.0,ENE,9.2,-,N/A,,Overcast,60,2012-11-30 23:01:00
6:06 PM,17.6,10.4,73,30.51,10.0,ENE,8.1,-,N/A,,Overcast,60,2012-11-30 23:06:00
6:24 PM,17.6,8.6,68,30.51,10.0,ENE,10.4,-,N/A,,Overcast,60,2012-11-30 23:24:00
6:39 PM,17.6,8.6,68,30.51,10.0,ENE,10.4,-,N/A,,Overcast,60,2012-11-30 23:39:00
6:45 PM,17.6,8.6,68,30.51,10.0,NE,9.2,-,N/A,,Overcast,50,2012-11-30 23:45:00
6:55 PM,17.4,9.0,69,30.51,10.0,ENE,8.1,-,N/A,,Overcast,60,2012-11-30 23:55:00
7:06 PM,17.6,8.6,68,30.51,10.0,ENE,8.1,-,N/A,,Overcast,60,2012-12-01 00:06:00
7:12 PM,17.6,8.6,68,30.51,10.0,ENE,8.1,-,N/A,,Overcast,60,2012-12-01 00:12:00
7:39 PM,17.6,8.6,68,30.52,10.0,ENE,8.1,-,N/A,,Overcast,60,2012-12-01 00:39:00
7:47 PM,17.6,8.6,68,30.51,10.0,ENE,9.2,-,N/A,,Overcast,70,2012-12-01 00:47:00
7:55 PM,17.6,9.0,69,30.51,10.0,ENE,9.2,-,N/A,,Overcast,70,2012-12-01 00:55:00
8:21 PM,17.6,8.6,68,30.50,10.0,ENE,8.1,-,N/A,,Overcast,70,2012-12-01 01:21:00
8:55 PM,18.3,10.4,71,30.49,10.0,East,6.9,-,N/A,,Overcast,90,2012-12-01 01:55:00
9:55 PM,18.3,11.1,73,30.50,10.0,NE,9.2,-,0.00,Snow,Light Snow,50,2012-12-01 02:55:00
9:57 PM,17.6,10.4,73,30.50,10.0,ENE,9.2,-,N/A,Snow,Light Snow,60,2012-12-01 02:57:00
10:25 PM,17.6,12.2,79,30.51,5.0,NE,10.4,-,N/A,Snow,Light Snow,50,2012-12-01 03:25:00
10:28 PM,17.6,12.2,79,30.51,4.0,NE,9.2,-,N/A,Snow,Light Snow,50,2012-12-01 03:28:00
10:31 PM,17.6,12.2,79,30.51,4.0,NE,9.2,-,N/A,Snow,Light Snow,40,2012-12-01 03:31:00
10:55 PM,17.1,12.7,83,30.50,6.0,ENE,6.9,-,0.00,Snow,Light Snow,60,2012-12-01 03:55:00
11:01 PM,17.6,14.0,86,30.50,5.0,NE,8.1,-,N/A,Snow,Light Snow,50,2012-12-01 04:01:00
11:55 PM,17.6,13.8,85,30.49,6.0,ENE,8.1,-,0.00,Snow,Light Snow,70,2012-12-01 04:55:00